• en France
  • Liste des pays
  • À 7 jours
  • Température de l'eau
  • Carte satellitaire
  • Carte météo
  • Widgets météo
  • user-avatar
    Se connecter

    Météo par heure à Daloa

    Ce jour, 20 Mai, Dimanche

    Heure Température Précipitation Vent Pression Humidité
    00:00 +26°C° 0 mm 1 m/s 737 mmHg 85%
    01:00 +25°C° 0,4 mm 1 m/s 737 mmHg 89%
    02:00 +25°C° 0,4 mm 1 m/s 736 mmHg 92%
    03:00 +24°C° 0,4 mm 1 m/s 736 mmHg 95%
    04:00 +24°C° 0 mm 1 m/s 736 mmHg 96%
    05:00 +24°C° 0 mm 1 m/s 736 mmHg 97%
    06:00 +24°C° 0 mm 1 m/s 736 mmHg 98%
    07:00 +25°C° 0 mm 1 m/s 736 mmHg 93%
    08:00 +26°C° 0 mm 1 m/s 736 mmHg 87%
    09:00 +28°C° 0 mm 1 m/s 737 mmHg 82%
    10:00 +30°C° 0 mm 1 m/s 737 mmHg 72%
    11:00 +32°C° 0 mm 1 m/s 736 mmHg 62%
    12:00 +34°C° 0 mm 1 m/s 736 mmHg 52%
    13:00 +35°C° 0,1 mm 1 m/s 736 mmHg 51%
    14:00 +35°C° 0,1 mm 1 m/s 735 mmHg 50%
    15:00 +35°C° 0,1 mm 1 m/s 735 mmHg 49%
    16:00 +34°C° 0 mm 1 m/s 735 mmHg 54%
    17:00 +33°C° 0 mm 1 m/s 735 mmHg 60%
    18:00 +32°C° 0 mm 1 m/s 735 mmHg 65%
    19:00 +30°C° 0 mm 2 m/s 735 mmHg 71%
    20:00 +29°C° 0 mm 2 m/s 736 mmHg 76%
    21:00 +28°C° 0 mm 2 m/s 736 mmHg 82%
    22:00 +27°C° 0,1 mm 2 m/s 736 mmHg 86%
    23:00 +26°C° 0,1 mm 2 m/s 736 mmHg 89%

    Demain, 21 Mai, Lundi

    Heure Température Précipitation Vent Pression Humidité
    00:00 +26°C° 0,1 mm 2 m/s 736 mmHg 93%
    01:00 +25°C° 0 mm 2 m/s 736 mmHg 93%
    02:00 +25°C° 0 mm 2 m/s 736 mmHg 94%
    03:00 +25°C° 0 mm 2 m/s 736 mmHg 95%
    04:00 +25°C° 0 mm 2 m/s 736 mmHg 94%
    05:00 +25°C° 0 mm 2 m/s 736 mmHg 94%
    06:00 +25°C° 0 mm 1 m/s 736 mmHg 93%
    07:00 +26°C° 0 mm 2 m/s 736 mmHg 90%
    08:00 +26°C° 0 mm 2 m/s 737 mmHg 87%
    09:00 +27°C° 0 mm 2 m/s 737 mmHg 84%
    10:00 +28°C° 0 mm 2 m/s 737 mmHg 77%
    11:00 +30°C° 0 mm 2 m/s 737 mmHg 70%
    12:00 +32°C° 0 mm 2 m/s 737 mmHg 63%
    13:00 +34°C° 0 mm 2 m/s 736 mmHg 59%
    14:00 +35°C° 0 mm 2 m/s 735 mmHg 55%
    15:00 +36°C° 0 mm 2 m/s 734 mmHg 51%
    16:00 +35°C° 0 mm 2 m/s 734 mmHg 55%
    17:00 +33°C° 0 mm 1 m/s 734 mmHg 60%
    18:00 +32°C° 0 mm 1 m/s 734 mmHg 64%
    19:00 +30°C° 0 mm 1 m/s 735 mmHg 69%
    20:00 +29°C° 0 mm 1 m/s 735 mmHg 74%
    21:00 +28°C° 0 mm 2 m/s 736 mmHg 79%
    22:00 +27°C° 0 mm 2 m/s 736 mmHg 83%
    23:00 +27°C° 0 mm 2 m/s 736 mmHg 86%

    Après-demain, 22 Mai, Mardi

    Heure Température Précipitation Vent Pression Humidité
    00:00 +26°C° 0 mm 2 m/s 737 mmHg 90%
    01:00 +26°C° 0,1 mm 2 m/s 736 mmHg 91%
    02:00 +26°C° 0,1 mm 2 m/s 736 mmHg 93%
    03:00 +25°C° 0,1 mm 2 m/s 736 mmHg 95%
    04:00 +25°C° 0 mm 1 m/s 736 mmHg 95%
    05:00 +25°C° 0 mm 1 m/s 736 mmHg 95%
    06:00 +25°C° 0 mm 1 m/s 736 mmHg 95%
    07:00 +26°C° 0 mm 1 m/s 737 mmHg 89%
    08:00 +28°C° 0 mm 1 m/s 737 mmHg 82%
    09:00 +29°C° 0 mm 2 m/s 737 mmHg 76%
    10:00 +31°C° 0 mm 2 m/s 737 mmHg 67%
    11:00 +34°C° 0 mm 2 m/s 737 mmHg 58%
    12:00 +36°C° 0 mm 2 m/s 737 mmHg 49%
    13:00 +37°C° 0 mm 2 m/s 736 mmHg 47%
    14:00 +38°C° 0 mm 2 m/s 735 mmHg 44%
    15:00 +37°C° 0 mm 1 m/s 734 mmHg 41%
    16:00 +36°C° 0 mm 1 m/s 734 mmHg 48%
    17:00 +34°C° 0 mm 1 m/s 734 mmHg 54%
    18:00 +32°C° 0 mm 1 m/s 734 mmHg 61%
    19:00 +30°C° 1,2 mm 2 m/s 735 mmHg 71%
    20:00 +29°C° 1,2 mm 2 m/s 736 mmHg 80%
    21:00 +27°C° 1,2 mm 2 m/s 736 mmHg 90%
    22:00 +26°C° 0 mm 2 m/s 737 mmHg 91%
    23:00 +26°C° 0 mm 2 m/s 737 mmHg 93%

    23 Mai, Mercredi

    Heure Température Précipitation Vent Pression Humidité
    00:00 +26°C° 0 mm 2 m/s 738 mmHg 95%
    01:00 +26°C° 0 mm 2 m/s 737 mmHg 95%
    02:00 +26°C° 0 mm 2 m/s 737 mmHg 95%
    03:00 +26°C° 0 mm 2 m/s 736 mmHg 94%
    04:00 +25°C° 0 mm 2 m/s 736 mmHg 95%
    05:00 +25°C° 0 mm 2 m/s 736 mmHg 95%
    06:00 +25°C° 0 mm 2 m/s 736 mmHg 95%
    07:00 +26°C° 0 mm 2 m/s 737 mmHg 89%
    08:00 +28°C° 0 mm 2 m/s 737 mmHg 82%
    09:00 +29°C° 0 mm 2 m/s 738 mmHg 76%
    10:00 +30°C° 0 mm 2 m/s 738 mmHg 72%
    11:00 +31°C° 0 mm 2 m/s 738 mmHg 68%
    12:00 +32°C° 0 mm 2 m/s 738 mmHg 64%
    13:00 +32°C° 0,1 mm 2 m/s 737 mmHg 62%
    14:00 +34°C° 0,1 mm 2 m/s 736 mmHg 59%
    15:00 +35°C° 0,1 mm 2 m/s 736 mmHg 56%
    16:00 +34°C° 0 mm 2 m/s 736 mmHg 60%
    17:00 +32°C° 0 mm 2 m/s 736 mmHg 64%
    18:00 +31°C° 0 mm 1 m/s 736 mmHg 68%
    19:00 +30°C° 0 mm 1 m/s 737 mmHg 74%
    20:00 +28°C° 0 mm 1 m/s 737 mmHg 80%
    21:00 +27°C° 0 mm 1 m/s 738 mmHg 86%
    22:00 +27°C° 0,1 mm 1 m/s 738 mmHg 88%
    23:00 +26°C° 0,1 mm 1 m/s 738 mmHg 90%

    24 Mai, Jeudi

    Heure Température Précipitation Vent Pression Humidité
    00:00 +26°C° 0,1 mm 1 m/s 738 mmHg 92%
    01:00 +26°C° 0,7 mm 1 m/s 737 mmHg 94%
    02:00 +25°C° 0,7 mm 1 m/s 737 mmHg 96%
    03:00 +25°C° 0,7 mm 1 m/s 737 mmHg 98%
    04:00 +25°C° 0 mm 1 m/s 737 mmHg 98%
    05:00 +24°C° 0 mm 1 m/s 736 mmHg 98%
    06:00 +24°C° 0 mm 1 m/s 736 mmHg 98%
    07:00 +25°C° 0 mm 1 m/s 737 mmHg 94%
    08:00 +27°C° 0 mm 1 m/s 738 mmHg 89%
    09:00 +28°C° 0 mm 1 m/s 738 mmHg 84%
    10:00 +30°C° 0 mm 1 m/s 738 mmHg 73%
    11:00 +32°C° 0 mm 1 m/s 738 mmHg 62%
    12:00 +34°C° 0 mm 1 m/s 737 mmHg 52%
    13:00 +35°C° 0 mm 1 m/s 737 mmHg 51%
    14:00 +35°C° 0 mm 1 m/s 736 mmHg 50%
    15:00 +35°C° 0 mm 1 m/s 735 mmHg 50%
    16:00 +33°C° 0,4 mm 1 m/s 735 mmHg 59%
    17:00 +31°C° 0,4 mm 2 m/s 735 mmHg 68%
    18:00 +29°C° 0,4 mm 2 m/s 735 mmHg 77%
    19:00 +28°C° 0,1 mm 2 m/s 736 mmHg 82%
    20:00 +27°C° 0,1 mm 2 m/s 737 mmHg 87%
    21:00 +26°C° 0,1 mm 2 m/s 737 mmHg 92%
    22:00 +26°C° 0 mm 2 m/s 737 mmHg 92%
    23:00 +25°C° 0 mm 2 m/s 737 mmHg 93%

    25 Mai, Vendredi

    Heure Température Précipitation Vent Pression Humidité
    00:00 +25°C° 0 mm 2 m/s 737 mmHg 93%
    01:00 +25°C° 0 mm 1 m/s 736 mmHg 94%
    02:00 +25°C° 0 mm 1 m/s 736 mmHg 95%
    03:00 +24°C° 0 mm 1 m/s 735 mmHg 97%
    04:00 +24°C° 0 mm 1 m/s 736 mmHg 96%
    05:00 +24°C° 0 mm 1 m/s 736 mmHg 96%
    06:00 +24°C° 0 mm 1 m/s 736 mmHg 96%
    07:00 +26°C° 0 mm 1 m/s 737 mmHg 90%
    08:00 +27°C° 0 mm 1 m/s 737 mmHg 85%
    09:00 +28°C° 0 mm 2 m/s 738 mmHg 79%
    10:00 +30°C° 0 mm 2 m/s 737 mmHg 71%
    11:00 +32°C° 0 mm 2 m/s 737 mmHg 63%
    12:00 +35°C° 0 mm 2 m/s 736 mmHg 54%
    13:00 +35°C° 0 mm 2 m/s 736 mmHg 51%
    14:00 +36°C° 0 mm 2 m/s 735 mmHg 48%
    15:00 +37°C° 0 mm 2 m/s 734 mmHg 45%
    16:00 +35°C° 0 mm 2 m/s 734 mmHg 51%
    17:00 +33°C° 0 mm 1 m/s 734 mmHg 56%
    18:00 +32°C° 0 mm 1 m/s 734 mmHg 62%
    19:00 +30°C° 0,3 mm 2 m/s 735 mmHg 70%
    20:00 +29°C° 0,3 mm 2 m/s 736 mmHg 79%
    21:00 +27°C° 0,3 mm 2 m/s 736 mmHg 87%
    22:00 +26°C° 0 mm 2 m/s 736 mmHg 89%
    23:00 +26°C° 0 mm 2 m/s 736 mmHg 91%
    Voir plus